TimeCST,TemperatureF,Dew PointF,Humidity,Sea Level PressureIn,VisibilityMPH,Wind Direction,Wind SpeedMPH,Gust SpeedMPH,PrecipitationIn,Events,Conditions,WindDirDegrees,DateUTC
12:53 AM,48.9,28.9,46,29.83,10.0,SSW,16.1,-,N/A,,Clear,210,2014-01-04 06:53:00
1:53 AM,48.9,30.9,50,29.82,10.0,SSW,16.1,-,N/A,,Clear,210,2014-01-04 07:53:00
2:53 AM,51.1,32.0,48,29.82,10.0,SSW,17.3,-,N/A,,Clear,200,2014-01-04 08:53:00
3:53 AM,52.0,30.9,45,29.81,10.0,SSW,15.0,-,N/A,,Clear,210,2014-01-04 09:53:00
4:53 AM,50.0,30.9,48,29.81,10.0,SSW,13.8,-,N/A,,Clear,200,2014-01-04 10:53:00
5:53 AM,50.0,30.0,46,29.82,10.0,SW,15.0,-,N/A,,Clear,220,2014-01-04 11:53:00
6:53 AM,52.0,30.0,43,29.83,10.0,SSW,16.1,-,N/A,,Clear,210,2014-01-04 12:53:00
7:53 AM,53.1,30.0,41,29.83,10.0,SSW,15.0,-,N/A,,Clear,210,2014-01-04 13:53:00
8:53 AM,57.0,30.9,37,29.85,10.0,SSW,13.8,-,N/A,,Clear,210,2014-01-04 14:53:00
9:53 AM,63.0,32.0,31,29.85,10.0,SW,17.3,-,N/A,,Clear,220,2014-01-04 15:53:00
10:53 AM,66.0,33.1,29,29.84,10.0,SW,19.6,-,N/A,,Clear,220,2014-01-04 16:53:00
11:53 AM,66.9,33.1,28,29.81,10.0,SW,20.7,-,N/A,,Clear,230,2014-01-04 17:53:00
12:53 PM,68.0,33.1,27,29.76,10.0,SW,17.3,21.9,N/A,,Clear,230,2014-01-04 18:53:00
1:53 PM,71.1,32.0,24,29.72,10.0,West,18.4,25.3,N/A,,Clear,260,2014-01-04 19:53:00
2:53 PM,70.0,28.9,22,29.69,10.0,West,13.8,24.2,N/A,,Clear,280,2014-01-04 20:53:00
3:53 PM,68.0,28.0,22,29.71,10.0,North,-9999.0,-,N/A,,Clear,0,2014-01-04 21:53:00
4:53 PM,68.0,28.9,23,29.71,10.0,WSW,15.0,-,N/A,,Clear,240,2014-01-04 22:53:00
5:53 PM,66.0,30.0,26,29.70,10.0,SW,19.6,-,N/A,,Clear,230,2014-01-04 23:53:00
6:53 PM,66.0,30.0,26,29.70,10.0,SW,17.3,-,N/A,,Clear,230,2014-01-05 00:53:00
7:53 PM,64.9,30.0,27,29.70,10.0,SW,13.8,-,N/A,,Clear,230,2014-01-05 01:53:00
8:53 PM,64.0,30.9,29,29.71,10.0,SW,11.5,-,N/A,,Clear,220,2014-01-05 02:53:00
9:53 PM,63.0,30.9,30,29.69,10.0,SW,16.1,-,N/A,,Clear,220,2014-01-05 03:53:00
10:53 PM,61.0,28.9,30,29.70,10.0,SW,12.7,-,N/A,,Clear,230,2014-01-05 04:53:00
11:53 PM,59.0,28.0,31,29.72,10.0,SW,9.2,-,N/A,,Clear,230,2014-01-05 05:53:00